Precipitable_Water
1.92 1.92 1.95 1.96 1.90 1.90 1.90 1.85 1.82 1.84 1.81 1.76 1.72 1.71 1.67 1.62 1.58 1.58 1.59 1.60 1.58 1.54 1.49 1.44 1.44 1.48 1.49 1.49 1.52 1.54 1.56 1.56 1.54 1.53 1.51 1.46 1.43 1.44 1.50 1.52 1.56 1.58 1.59 1.60 1.61 1.63 1.66 1.72 1.68 1.70 1.73 1.68 1.68 1.76 1.68 1.67 1.74 1.75 1.77 1.80 1.77 1.75 1.71 1.64 1.61 1.60 1.62 1.68 1.71 1.72 1.73 1.76 1.81 1.86 1.83 1.81 1.82 1.86 1.85 1.84 1.79 1.76 1.76 1.82 1.80
1.83 1.93 1.93 1.91 1.88 1.89 1.86 1.80 1.77 1.77 1.77 1.74 1.70 1.67 1.65 1.61 1.59 1.58 1.57 1.54 1.50 1.47 1.43 1.42 1.43 1.46 1.50 1.53 1.55 1.56 1.57 1.56 1.55 1.52 1.48 1.46 1.52 1.59 1.65 1.67 1.67 1.67 1.69 1.72 1.75 1.77 1.80 1.87 1.83 1.82 1.88 1.85 1.84 1.82 1.81 1.78 1.78 1.80 1.83 1.79 1.77 1.73 1.68 1.65 1.64 1.67 1.64 1.64 1.65 1.70 1.76 1.78 1.81 1.85 1.84 1.82 1.82 1.80 1.79 1.75 1.75 1.76 1.77 1.79 1.77
1.91 1.91 1.90 1.90 1.92 1.89 1.87 1.83 1.77 1.76 1.76 1.71 1.68 1.65 1.62 1.60 1.55 1.49 1.45 1.42 1.43 1.43 1.41 1.40 1.41 1.46 1.50 1.53 1.55 1.56 1.57 1.57 1.56 1.55 1.56 1.62 1.67 1.70 1.72 1.73 1.74 1.73 1.75 1.80 1.84 1.84 1.86 1.89 1.90 1.89 1.87 1.84 1.84 1.86 1.82 1.83 1.83 1.82 1.84 1.84 1.83 1.78 1.75 1.71 1.75 1.74 1.71 1.67 1.70 1.81 1.84 1.80 1.80 1.81 1.81 1.79 1.75 1.73 1.71 1.72 1.73 1.78 1.79 1.82 1.79
1.86 1.87 1.90 1.90 1.92 1.89 1.89 1.84 1.78 1.77 1.76 1.70 1.65 1.62 1.57 1.51 1.42 1.38 1.38 1.42 1.44 1.42 1.38 1.38 1.44 1.50 1.54 1.57 1.62 1.62 1.62 1.61 1.60 1.61 1.66 1.71 1.71 1.74 1.76 1.75 1.74 1.76 1.80 1.85 1.87 1.87 1.87 1.89 1.88 1.85 1.88 1.88 1.88 1.86 1.80 1.79 1.80 1.82 1.80 1.84 1.82 1.82 1.77 1.75 1.75 1.76 1.77 1.79 1.78 1.80 1.80 1.80 1.82 1.83 1.79 1.77 1.73 1.68 1.66 1.69 1.74 1.79 1.81 1.85 1.78
1.83 1.85 1.86 1.91 1.91 1.90 1.86 1.80 1.78 1.77 1.74 1.68 1.60 1.53 1.46 1.38 1.35 1.38 1.44 1.46 1.46 1.44 1.42 1.45 1.50 1.55 1.60 1.67 1.69 1.67 1.65 1.64 1.64 1.66 1.70 1.73 1.73 1.74 1.74 1.75 1.78 1.81 1.86 1.88 1.86 1.87 1.87 1.87 1.88 1.87 1.86 1.85 1.84 1.81 1.75 1.76 1.76 1.77 1.80 1.81 1.82 1.78 1.77 1.78 1.80 1.79 1.80 1.78 1.73 1.72 1.75 1.79 1.83 1.82 1.77 1.71 1.66 1.64 1.64 1.71 1.76 1.82 1.85 1.76 1.64
1.80 1.83 1.85 1.86 1.86 1.87 1.82 1.75 1.74 1.73 1.67 1.58 1.50 1.42 1.36 1.34 1.38 1.42 1.45 1.46 1.45 1.45 1.46 1.48 1.53 1.59 1.67 1.70 1.70 1.68 1.66 1.65 1.66 1.68 1.72 1.74 1.74 1.76 1.75 1.74 1.77 1.82 1.86 1.86 1.88 1.85 1.88 1.92 1.84 1.80 1.84 1.76 1.77 1.74 1.76 1.75 1.73 1.70 1.71 1.75 1.77 1.76 1.78 1.81 1.78 1.74 1.72 1.71 1.72 1.75 1.79 1.83 1.84 1.80 1.76 1.73 1.68 1.62 1.65 1.75 1.76 1.77 1.75 1.62 1.57
1.82 1.82 1.82 1.82 1.82 1.81 1.76 1.69 1.66 1.64 1.59 1.53 1.45 1.36 1.34 1.35 1.38 1.41 1.42 1.44 1.45 1.46 1.46 1.49 1.55 1.64 1.68 1.70 1.70 1.69 1.67 1.68 1.71 1.73 1.75 1.76 1.78 1.78 1.77 1.78 1.81 1.88 1.85 1.83 1.80 1.82 1.80 1.78 1.73 1.71 1.72 1.73 1.72 1.70 1.71 1.74 1.72 1.71 1.70 1.71 1.74 1.77 1.82 1.86 1.79 1.72 1.70 1.72 1.75 1.78 1.78 1.79 1.79 1.78 1.73 1.77 1.77 1.75 1.76 1.77 1.75 1.68 1.58 1.52 1.47
1.87 1.83 1.80 1.79 1.77 1.73 1.69 1.63 1.58 1.56 1.54 1.49 1.41 1.36 1.36 1.39 1.43 1.44 1.47 1.48 1.48 1.47 1.48 1.51 1.62 1.67 1.68 1.71 1.72 1.72 1.72 1.72 1.74 1.76 1.78 1.79 1.79 1.79 1.78 1.78 1.84 1.84 1.84 1.84 1.79 1.77 1.73 1.71 1.66 1.61 1.55 1.55 1.57 1.64 1.75 1.76 1.79 1.77 1.73 1.73 1.75 1.80 1.86 1.86 1.77 1.73 1.72 1.73 1.73 1.73 1.76 1.79 1.82 1.84 1.83 1.83 1.78 1.73 1.72 1.68 1.65 1.60 1.54 1.50 1.49
1.77 1.79 1.78 1.76 1.73 1.73 1.67 1.59 1.52 1.51 1.49 1.45 1.41 1.40 1.43 1.46 1.49 1.52 1.54 1.53 1.50 1.49 1.51 1.58 1.66 1.68 1.69 1.71 1.74 1.76 1.75 1.75 1.77 1.81 1.84 1.82 1.81 1.79 1.77 1.79 1.84 1.85 1.86 1.87 1.83 1.77 1.71 1.63 1.56 1.55 1.57 1.55 1.59 1.70 1.80 1.82 1.84 1.85 1.81 1.83 1.87 1.86 1.84 1.80 1.76 1.72 1.72 1.72 1.72 1.75 1.78 1.81 1.84 1.87 1.84 1.79 1.74 1.70 1.63 1.57 1.56 1.54 1.56 1.53 1.49
1.71 1.75 1.75 1.75 1.73 1.68 1.59 1.50 1.47 1.46 1.45 1.42 1.42 1.45 1.48 1.51 1.54 1.56 1.55 1.53 1.50 1.52 1.57 1.66 1.69 1.71 1.72 1.74 1.76 1.76 1.76 1.78 1.80 1.82 1.84 1.84 1.84 1.81 1.77 1.80 1.82 1.85 1.89 1.88 1.84 1.78 1.69 1.62 1.61 1.64 1.64 1.62 1.71 1.84 1.86 1.87 1.86 1.89 1.87 1.87 1.87 1.83 1.80 1.76 1.74 1.73 1.71 1.71 1.75 1.77 1.78 1.78 1.81 1.80 1.80 1.70 1.64 1.58 1.55 1.53 1.53 1.55 1.55 1.53 1.51
1.65 1.68 1.71 1.71 1.71 1.63 1.50 1.46 1.47 1.47 1.44 1.42 1.43 1.47 1.50 1.52 1.55 1.54 1.53 1.52 1.53 1.56 1.63 1.72 1.76 1.76 1.78 1.79 1.78 1.77 1.76 1.80 1.82 1.80 1.82 1.86 1.87 1.83 1.84 1.84 1.85 1.84 1.87 1.86 1.84 1.76 1.64 1.61 1.69 1.79 1.84 1.82 1.83 1.89 1.89 1.89 1.91 1.92 1.92 1.91 1.86 1.79 1.76 1.73 1.70 1.69 1.69 1.71 1.76 1.81 1.84 1.72 1.70 1.67 1.62 1.55 1.49 1.48 1.51 1.52 1.54 1.55 1.53 1.50 1.43
1.59 1.64 1.67 1.70 1.74 1.64 1.56 1.56 1.56 1.53 1.46 1.44 1.45 1.50 1.52 1.53 1.52 1.53 1.55 1.54 1.57 1.62 1.71 1.76 1.78 1.78 1.78 1.80 1.80 1.77 1.78 1.81 1.79 1.80 1.82 1.84 1.86 1.92 1.87 1.87 1.85 1.84 1.85 1.85 1.79 1.69 1.60 1.62 1.74 1.91 1.90 1.87 1.90 1.90 1.91 1.91 1.90 1.90 1.90 1.89 1.86 1.78 1.73 1.71 1.68 1.67 1.69 1.71 1.72 1.72 1.67 1.63 1.60 1.55 1.47 1.41 1.42 1.48 1.51 1.53 1.50 1.46 1.45 1.44 1.39
1.54 1.60 1.65 1.70 1.72 1.70 1.68 1.63 1.61 1.57 1.48 1.45 1.48 1.51 1.51 1.51 1.54 1.58 1.60 1.63 1.66 1.71 1.74 1.77 1.79 1.80 1.81 1.80 1.78 1.76 1.76 1.78 1.80 1.81 1.82 1.83 1.89 1.91 1.90 1.87 1.83 1.82 1.84 1.84 1.79 1.69 1.62 1.64 1.76 1.88 1.89 1.90 1.93 1.91 1.93 1.92 1.90 1.87 1.85 1.87 1.80 1.76 1.73 1.69 1.66 1.67 1.70 1.69 1.64 1.64 1.60 1.55 1.50 1.41 1.38 1.43 1.47 1.48 1.49 1.47 1.46 1.46 1.44 1.39 1.34
1.47 1.55 1.63 1.68 1.69 1.70 1.70 1.70 1.64 1.58 1.50 1.48 1.48 1.50 1.53 1.57 1.64 1.68 1.70 1.72 1.72 1.74 1.76 1.78 1.79 1.80 1.79 1.78 1.79 1.78 1.79 1.82 1.81 1.82 1.83 1.83 1.78 1.81 1.84 1.83 1.81 1.84 1.85 1.84 1.77 1.68 1.65 1.69 1.83 1.91 1.89 1.92 1.94 1.94 1.92 1.90 1.90 1.88 1.88 1.87 1.80 1.77 1.72 1.68 1.69 1.68 1.66 1.64 1.62 1.62 1.58 1.47 1.39 1.38 1.44 1.45 1.46 1.48 1.48 1.48 1.47 1.48 1.48 1.45 1.46
1.45 1.51 1.57 1.60 1.60 1.62 1.66 1.71 1.67 1.57 1.50 1.51 1.52 1.58 1.70 1.74 1.75 1.77 1.77 1.77 1.74 1.77 1.78 1.78 1.78 1.80 1.78 1.75 1.75 1.77 1.80 1.84 1.88 1.86 1.85 1.82 1.79 1.79 1.81 1.84 1.87 1.85 1.83 1.78 1.71 1.65 1.64 1.68 1.81 1.90 1.91 1.92 1.92 1.91 1.93 1.93 1.92 1.89 1.87 1.84 1.80 1.77 1.71 1.68 1.67 1.66 1.64 1.62 1.61 1.60 1.51 1.41 1.39 1.42 1.46 1.48 1.50 1.51 1.52 1.52 1.53 1.56 1.56 1.55 1.57
1.53 1.49 1.52 1.47 1.49 1.53 1.64 1.71 1.61 1.48 1.48 1.58 1.64 1.74 1.82 1.82 1.80 1.80 1.77 1.75 1.76 1.76 1.74 1.74 1.76 1.74 1.73 1.73 1.72 1.72 1.79 1.82 1.88 1.85 1.85 1.87 1.77 1.77 1.80 1.83 1.83 1.80 1.78 1.73 1.63 1.56 1.55 1.66 1.81 1.89 1.91 1.92 1.93 1.92 1.93 1.92 1.90 1.89 1.85 1.87 1.79 1.75 1.72 1.68 1.66 1.66 1.65 1.62 1.60 1.55 1.47 1.41 1.40 1.44 1.47 1.49 1.51 1.53 1.55 1.57 1.60 1.63 1.62 1.61 1.62
1.51 1.51 1.43 1.38 1.41 1.53 1.62 1.66 1.50 1.42 1.53 1.69 1.83 1.83 1.83 1.81 1.80 1.80 1.79 1.81 1.78 1.77 1.76 1.77 1.72 1.69 1.68 1.68 1.68 1.71 1.75 1.78 1.83 1.89 1.88 1.81 1.76 1.76 1.78 1.81 1.80 1.78 1.75 1.65 1.56 1.52 1.50 1.59 1.78 1.84 1.91 1.91 1.93 1.92 1.91 1.88 1.88 1.90 1.89 1.85 1.79 1.77 1.74 1.71 1.69 1.67 1.65 1.60 1.57 1.53 1.49 1.45 1.44 1.46 1.51 1.54 1.56 1.58 1.60 1.63 1.66 1.67 1.66 1.66 1.65
1.46 1.42 1.34 1.36 1.42 1.53 1.55 1.49 1.43 1.46 1.61 1.78 1.81 1.78 1.79 1.81 1.83 1.82 1.82 1.79 1.79 1.76 1.72 1.69 1.70 1.69 1.65 1.63 1.64 1.67 1.73 1.79 1.82 1.82 1.82 1.79 1.76 1.79 1.81 1.81 1.78 1.76 1.71 1.63 1.56 1.49 1.45 1.54 1.77 1.86 1.86 1.89 1.93 1.94 1.94 1.92 1.92 1.89 1.87 1.85 1.82 1.78 1.73 1.71 1.69 1.68 1.64 1.61 1.58 1.57 1.53 1.50 1.48 1.49 1.54 1.58 1.60 1.62 1.66 1.70 1.72 1.73 1.71 1.68 1.64
1.38 1.35 1.36 1.39 1.44 1.45 1.43 1.41 1.44 1.51 1.68 1.77 1.78 1.79 1.82 1.82 1.83 1.78 1.80 1.81 1.76 1.72 1.70 1.66 1.63 1.62 1.61 1.60 1.60 1.64 1.74 1.81 1.82 1.80 1.76 1.75 1.74 1.78 1.80 1.80 1.80 1.78 1.72 1.65 1.57 1.48 1.43 1.51 1.73 1.86 1.87 1.88 1.89 1.90 1.90 1.91 1.90 1.88 1.89 1.84 1.83 1.77 1.73 1.69 1.66 1.66 1.64 1.62 1.60 1.58 1.57 1.54 1.54 1.55 1.57 1.60 1.63 1.65 1.71 1.75 1.75 1.72 1.72 1.71 1.70
1.31 1.32 1.35 1.41 1.40 1.35 1.33 1.38 1.48 1.58 1.70 1.75 1.76 1.81 1.82 1.76 1.79 1.80 1.77 1.77 1.72 1.68 1.65 1.62 1.60 1.62 1.61 1.59 1.60 1.69 1.78 1.78 1.80 1.77 1.73 1.72 1.74 1.76 1.79 1.80 1.80 1.78 1.74 1.68 1.61 1.52 1.46 1.54 1.73 1.85 1.87 1.85 1.87 1.91 1.88 1.90 1.88 1.86 1.86 1.82 1.78 1.71 1.65 1.66 1.65 1.64 1.66 1.65 1.64 1.59 1.58 1.59 1.59 1.58 1.58 1.59 1.63 1.67 1.71 1.73 1.72 1.72 1.71 1.74 1.72
1.29 1.33 1.34 1.34 1.34 1.27 1.29 1.43 1.55 1.62 1.68 1.72 1.73 1.76 1.80 1.82 1.88 1.84 1.80 1.72 1.68 1.66 1.63 1.65 1.67 1.67 1.62 1.61 1.63 1.63 1.70 1.75 1.74 1.70 1.72 1.68 1.71 1.78 1.81 1.81 1.80 1.80 1.78 1.72 1.65 1.58 1.53 1.53 1.62 1.74 1.85 1.86 1.85 1.87 1.91 1.79 1.73 1.70 1.76 1.73 1.66 1.61 1.62 1.62 1.62 1.62 1.63 1.65 1.65 1.64 1.61 1.59 1.59 1.58 1.57 1.58 1.62 1.66 1.69 1.70 1.72 1.76 1.73 1.69 1.68
1.18 1.23 1.30 1.32 1.24 1.25 1.38 1.54 1.59 1.61 1.65 1.69 1.71 1.73 1.79 1.80 1.77 1.79 1.80 1.72 1.67 1.65 1.66 1.68 1.67 1.65 1.64 1.61 1.57 1.57 1.61 1.64 1.65 1.69 1.62 1.66 1.73 1.76 1.79 1.80 1.78 1.79 1.78 1.72 1.67 1.63 1.61 1.61 1.62 1.66 1.78 1.83 1.84 1.81 1.78 1.72 1.61 1.52 1.46 1.42 1.41 1.43 1.46 1.45 1.45 1.49 1.53 1.58 1.60 1.61 1.62 1.59 1.56 1.56 1.56 1.57 1.60 1.64 1.67 1.67 1.71 1.68 1.65 1.66 1.63
1.10 1.15 1.18 1.22 1.22 1.29 1.50 1.59 1.61 1.61 1.62 1.64 1.66 1.70 1.74 1.74 1.71 1.77 1.77 1.72 1.67 1.69 1.69 1.69 1.65 1.65 1.62 1.59 1.57 1.57 1.57 1.60 1.62 1.61 1.63 1.66 1.70 1.74 1.74 1.74 1.74 1.74 1.72 1.70 1.66 1.64 1.66 1.69 1.67 1.68 1.71 1.74 1.75 1.73 1.67 1.67 1.66 1.51 1.38 1.28 1.25 1.25 1.29 1.32 1.32 1.32 1.34 1.38 1.44 1.53 1.57 1.59 1.59 1.57 1.54 1.54 1.57 1.61 1.65 1.64 1.64 1.65 1.64 1.62 1.58
1.04 1.06 1.07 1.18 1.24 1.33 1.47 1.57 1.58 1.57 1.56 1.60 1.64 1.66 1.66 1.65 1.68 1.71 1.71 1.68 1.70 1.72 1.71 1.63 1.60 1.59 1.58 1.57 1.57 1.58 1.60 1.60 1.64 1.63 1.62 1.64 1.66 1.66 1.70 1.72 1.73 1.74 1.74 1.74 1.72 1.68 1.69 1.73 1.74 1.76 1.73 1.71 1.70 1.69 1.64 1.57 1.51 1.47 1.40 1.28 1.24 1.22 1.18 1.16 1.20 1.21 1.25 1.29 1.32 1.36 1.40 1.47 1.54 1.59 1.58 1.54 1.55 1.58 1.60 1.60 1.61 1.63 1.63 1.59 1.55
1.06 1.08 1.10 1.14 1.24 1.34 1.42 1.50 1.56 1.55 1.54 1.59 1.59 1.58 1.61 1.63 1.66 1.67 1.65 1.66 1.71 1.75 1.73 1.68 1.61 1.58 1.58 1.60 1.62 1.63 1.65 1.69 1.72 1.68 1.64 1.62 1.62 1.64 1.72 1.73 1.75 1.77 1.79 1.74 1.75 1.74 1.73 1.74 1.77 1.76 1.75 1.74 1.71 1.68 1.66 1.58 1.54 1.46 1.41 1.35 1.29 1.28 1.27 1.21 1.20 1.23 1.23 1.26 1.27 1.30 1.32 1.35 1.40 1.47 1.54 1.54 1.54 1.55 1.56 1.56 1.59 1.61 1.60 1.56 1.54
1.12 1.03 1.07 1.16 1.23 1.33 1.40 1.47 1.53 1.52 1.54 1.58 1.56 1.59 1.59 1.55 1.58 1.60 1.62 1.67 1.71 1.74 1.74 1.71 1.68 1.67 1.70 1.72 1.73 1.70 1.69 1.71 1.72 1.67 1.64 1.64 1.63 1.66 1.69 1.70 1.72 1.72 1.77 1.74 1.74 1.73 1.72 1.73 1.73 1.74 1.76 1.78 1.75 1.73 1.69 1.63 1.57 1.54 1.50 1.47 1.42 1.36 1.31 1.27 1.24 1.28 1.32 1.32 1.31 1.30 1.30 1.33 1.37 1.43 1.46 1.47 1.50 1.53 1.52 1.54 1.55 1.56 1.56 1.54 1.54
1.07 1.06 1.16 1.22 1.25 1.31 1.40 1.46 1.46 1.50 1.52 1.58 1.59 1.59 1.56 1.58 1.58 1.59 1.60 1.64 1.70 1.70 1.69 1.71 1.73 1.76 1.78 1.80 1.76 1.73 1.72 1.70 1.67 1.64 1.63 1.66 1.63 1.67 1.68 1.72 1.72 1.73 1.76 1.72 1.69 1.71 1.71 1.70 1.71 1.74 1.78 1.78 1.76 1.77 1.74 1.67 1.62 1.57 1.56 1.53 1.50 1.46 1.40 1.31 1.29 1.30 1.36 1.39 1.40 1.37 1.34 1.35 1.36 1.38 1.42 1.46 1.47 1.47 1.50 1.52 1.53 1.53 1.54 1.55 1.54
1.10 1.14 1.20 1.23 1.24 1.24 1.36 1.41 1.42 1.44 1.44 1.52 1.54 1.55 1.57 1.58 1.58 1.60 1.64 1.66 1.66 1.67 1.69 1.72 1.76 1.78 1.82 1.84 1.82 1.75 1.71 1.68 1.66 1.65 1.64 1.67 1.64 1.67 1.72 1.74 1.74 1.76 1.80 1.78 1.69 1.68 1.69 1.71 1.73 1.77 1.79 1.79 1.76 1.75 1.75 1.72 1.67 1.66 1.62 1.59 1.58 1.54 1.51 1.43 1.38 1.38 1.41 1.42 1.42 1.42 1.40 1.39 1.37 1.38 1.40 1.42 1.45 1.47 1.49 1.50 1.50 1.51 1.54 1.55 1.55
1.07 1.16 1.24 1.25 1.25 1.25 1.31 1.35 1.36 1.36 1.38 1.45 1.48 1.54 1.56 1.58 1.59 1.58 1.61 1.66 1.63 1.68 1.73 1.75 1.74 1.77 1.81 1.82 1.80 1.71 1.71 1.69 1.63 1.62 1.66 1.66 1.67 1.68 1.70 1.72 1.76 1.77 1.79 1.74 1.72 1.68 1.68 1.69 1.71 1.73 1.76 1.76 1.74 1.70 1.70 1.70 1.71 1.70 1.68 1.64 1.62 1.61 1.60 1.54 1.42 1.42 1.43 1.44 1.44 1.42 1.40 1.39 1.39 1.39 1.38 1.42 1.45 1.47 1.47 1.47 1.46 1.47 1.49 1.51 1.52
1.08 1.18 1.26 1.26 1.29 1.28 1.25 1.29 1.30 1.30 1.33 1.38 1.45 1.50 1.52 1.53 1.55 1.56 1.63 1.65 1.60 1.68 1.74 1.73 1.75 1.75 1.77 1.80 1.79 1.78 1.76 1.71 1.66 1.70 1.68 1.66 1.72 1.76 1.77 1.76 1.75 1.77 1.76 1.69 1.74 1.70 1.65 1.66 1.69 1.71 1.71 1.70 1.68 1.68 1.69 1.66 1.68 1.69 1.69 1.64 1.60 1.57 1.57 1.54 1.43 1.40 1.42 1.44 1.46 1.46 1.44 1.41 1.39 1.38 1.38 1.39 1.41 1.42 1.42 1.43 1.44 1.45 1.47 1.51 1.51
1.14 1.17 1.26 1.28 1.31 1.30 1.23 1.30 1.31 1.30 1.31 1.31 1.41 1.49 1.52 1.51 1.54 1.57 1.62 1.61 1.60 1.67 1.74 1.77 1.76 1.76 1.78 1.80 1.79 1.82 1.84 1.84 1.79 1.77 1.77 1.75 1.74 1.75 1.75 1.78 1.76 1.75 1.76 1.73 1.76 1.73 1.71 1.67 1.66 1.65 1.66 1.67 1.67 1.70 1.67 1.61 1.63 1.67 1.69 1.65 1.61 1.60 1.57 1.56 1.47 1.42 1.40 1.42 1.45 1.48 1.48 1.44 1.42 1.41 1.39 1.38 1.37 1.38 1.40 1.41 1.43 1.44 1.46 1.47 1.49
1.12 1.15 1.26 1.32 1.31 1.30 1.29 1.30 1.31 1.29 1.27 1.29 1.39 1.47 1.48 1.50 1.55 1.58 1.58 1.63 1.63 1.66 1.75 1.79 1.81 1.81 1.82 1.79 1.82 1.85 1.88 1.86 1.86 1.84 1.80 1.77 1.76 1.77 1.78 1.75 1.73 1.75 1.77 1.74 1.72 1.72 1.71 1.72 1.73 1.72 1.69 1.66 1.63 1.64 1.64 1.61 1.60 1.63 1.68 1.65 1.63 1.58 1.56 1.56 1.50 1.44 1.41 1.41 1.42 1.43 1.44 1.43 1.42 1.40 1.39 1.38 1.37 1.36 1.36 1.38 1.40 1.43 1.43 1.45 1.48
1.17 1.20 1.28 1.32 1.29 1.32 1.33 1.31 1.33 1.28 1.24 1.26 1.34 1.48 1.50 1.52 1.56 1.56 1.57 1.63 1.64 1.68 1.74 1.82 1.86 1.87 1.85 1.84 1.83 1.85 1.87 1.84 1.85 1.83 1.78 1.74 1.73 1.71 1.71 1.72 1.72 1.73 1.75 1.74 1.72 1.71 1.71 1.70 1.68 1.70 1.64 1.59 1.55 1.55 1.62 1.62 1.57 1.59 1.63 1.61 1.60 1.56 1.57 1.54 1.51 1.48 1.43 1.44 1.45 1.44 1.42 1.42 1.40 1.40 1.37 1.37 1.36 1.36 1.36 1.38 1.40 1.40 1.43 1.46 1.48
1.19 1.25 1.32 1.31 1.35 1.38 1.38 1.36 1.34 1.25 1.25 1.29 1.36 1.48 1.52 1.54 1.57 1.59 1.58 1.60 1.63 1.67 1.73 1.83 1.86 1.86 1.85 1.85 1.85 1.86 1.85 1.85 1.85 1.83 1.81 1.75 1.71 1.67 1.64 1.66 1.71 1.75 1.77 1.77 1.73 1.72 1.67 1.64 1.64 1.62 1.58 1.52 1.46 1.48 1.49 1.45 1.50 1.54 1.55 1.57 1.56 1.54 1.54 1.51 1.50 1.49 1.48 1.46 1.47 1.47 1.47 1.47 1.46 1.44 1.42 1.39 1.37 1.36 1.35 1.37 1.37 1.38 1.42 1.46 1.47
1.26 1.26 1.26 1.31 1.37 1.38 1.41 1.34 1.35 1.26 1.28 1.30 1.37 1.47 1.54 1.56 1.57 1.57 1.57 1.58 1.62 1.66 1.72 1.78 1.78 1.78 1.80 1.79 1.82 1.85 1.87 1.85 1.86 1.85 1.80 1.75 1.69 1.66 1.68 1.71 1.78 1.81 1.80 1.81 1.77 1.72 1.68 1.62 1.61 1.57 1.56 1.50 1.47 1.46 1.43 1.38 1.40 1.43 1.47 1.51 1.48 1.51 1.50 1.46 1.47 1.46 1.45 1.45 1.46 1.45 1.48 1.47 1.49 1.47 1.44 1.42 1.41 1.38 1.36 1.34 1.35 1.37 1.39 1.41 1.44
1.26 1.27 1.30 1.35 1.36 1.39 1.43 1.35 1.37 1.31 1.28 1.35 1.42 1.50 1.56 1.57 1.60 1.58 1.57 1.59 1.56 1.59 1.66 1.70 1.70 1.70 1.72 1.71 1.75 1.80 1.83 1.83 1.84 1.85 1.76 1.71 1.69 1.69 1.72 1.75 1.78 1.82 1.83 1.81 1.75 1.66 1.66 1.64 1.63 1.60 1.46 1.40 1.39 1.37 1.40 1.34 1.38 1.39 1.44 1.47 1.48 1.49 1.46 1.46 1.44 1.45 1.46 1.46 1.43 1.44 1.46 1.47 1.49 1.48 1.47 1.46 1.44 1.44 1.43 1.42 1.43 1.44 1.44 1.46 1.46
1.33 1.31 1.30 1.32 1.35 1.38 1.42 1.38 1.35 1.37 1.32 1.39 1.49 1.54 1.58 1.57 1.59 1.58 1.57 1.58 1.53 1.56 1.63 1.65 1.63 1.61 1.65 1.66 1.72 1.77 1.81 1.80 1.81 1.82 1.77 1.70 1.73 1.75 1.75 1.76 1.80 1.80 1.80 1.79 1.73 1.72 1.66 1.61 1.60 1.62 1.54 1.39 1.35 1.31 1.32 1.31 1.31 1.35 1.40 1.46 1.50 1.49 1.46 1.46 1.46 1.46 1.49 1.44 1.42 1.43 1.44 1.44 1.45 1.46 1.49 1.49 1.48 1.48 1.47 1.49 1.50 1.50 1.49 1.47 1.47
1.40 1.35 1.33 1.29 1.29 1.37 1.40 1.40 1.40 1.45 1.42 1.41 1.51 1.59 1.61 1.62 1.60 1.57 1.57 1.58 1.54 1.58 1.60 1.60 1.55 1.53 1.58 1.61 1.70 1.75 1.77 1.78 1.81 1.82 1.78 1.76 1.75 1.73 1.72 1.77 1.82 1.81 1.77 1.76 1.75 1.79 1.74 1.70 1.61 1.60 1.53 1.40 1.31 1.26 1.25 1.28 1.32 1.33 1.38 1.43 1.45 1.44 1.42 1.44 1.45 1.46 1.45 1.40 1.39 1.39 1.39 1.42 1.42 1.41 1.45 1.47 1.50 1.51 1.52 1.52 1.50 1.49 1.50 1.49 1.48
1.41 1.39 1.37 1.34 1.33 1.36 1.41 1.41 1.40 1.45 1.47 1.49 1.57 1.67 1.66 1.64 1.65 1.58 1.57 1.61 1.58 1.58 1.57 1.54 1.53 1.52 1.54 1.61 1.68 1.75 1.77 1.78 1.79 1.81 1.78 1.79 1.74 1.71 1.70 1.77 1.82 1.78 1.74 1.71 1.73 1.76 1.74 1.74 1.65 1.53 1.52 1.44 1.34 1.31 1.30 1.29 1.29 1.35 1.37 1.40 1.39 1.36 1.42 1.44 1.42 1.40 1.36 1.34 1.34 1.34 1.37 1.34 1.37 1.39 1.37 1.39 1.42 1.46 1.49 1.50 1.46 1.44 1.44 1.46 1.46
1.47 1.42 1.39 1.35 1.29 1.32 1.38 1.42 1.41 1.46 1.50 1.53 1.59 1.62 1.61 1.55 1.51 1.55 1.56 1.57 1.55 1.52 1.54 1.54 1.54 1.51 1.60 1.67 1.72 1.76 1.78 1.76 1.76 1.79 1.79 1.79 1.76 1.75 1.73 1.79 1.77 1.72 1.67 1.62 1.62 1.66 1.66 1.66 1.62 1.55 1.48 1.44 1.42 1.36 1.36 1.29 1.26 1.27 1.28 1.31 1.34 1.36 1.37 1.38 1.36 1.34 1.35 1.33 1.32 1.39 1.37 1.42 1.45 1.44 1.42 1.40 1.43 1.42 1.42 1.41 1.44 1.44 1.44 1.42 1.41
1.50 1.44 1.39 1.35 1.28 1.24 1.30 1.32 1.39 1.45 1.45 1.46 1.49 1.51 1.47 1.46 1.48 1.48 1.46 1.49 1.47 1.48 1.49 1.52 1.52 1.53 1.62 1.70 1.76 1.79 1.77 1.77 1.78 1.78 1.81 1.83 1.80 1.78 1.76 1.73 1.71 1.67 1.61 1.56 1.61 1.65 1.72 1.73 1.66 1.64 1.53 1.41 1.35 1.38 1.37 1.34 1.20 1.14 1.21 1.19 1.23 1.34 1.36 1.36 1.35 1.33 1.34 1.36 1.41 1.40 1.44 1.45 1.44 1.44 1.46 1.50 1.48 1.47 1.44 1.44 1.47 1.49 1.47 1.44 1.40
1.47 1.45 1.39 1.36 1.30 1.25 1.23 1.29 1.39 1.41 1.42 1.44 1.46 1.47 1.49 1.46 1.41 1.43 1.46 1.45 1.42 1.40 1.39 1.47 1.47 1.55 1.66 1.71 1.75 1.78 1.77 1.78 1.79 1.80 1.83 1.83 1.79 1.77 1.74 1.70 1.69 1.66 1.62 1.61 1.62 1.67 1.70 1.70 1.67 1.56 1.58 1.45 1.35 1.40 1.37 1.30 1.10 1.03 0.98 1.01 1.11 1.21 1.28 1.33 1.34 1.34 1.38 1.41 1.41 1.40 1.41 1.38 1.38 1.42 1.47 1.49 1.48 1.47 1.46 1.47 1.47 1.47 1.46 1.44 1.42
1.50 1.45 1.44 1.41 1.35 1.25 1.21 1.27 1.34 1.37 1.38 1.43 1.48 1.44 1.49 1.53 1.48 1.47 1.47 1.42 1.50 1.49 1.48 1.49 1.52 1.58 1.67 1.71 1.72 1.73 1.77 1.80 1.80 1.81 1.83 1.86 1.84 1.79 1.76 1.75 1.68 1.64 1.55 1.52 1.55 1.58 1.63 1.63 1.59 1.49 1.42 1.46 1.39 1.40 1.33 1.31 1.09 1.11 1.13 1.00 0.94 0.95 1.10 1.21 1.31 1.34 1.36 1.39 1.41 1.37 1.38 1.37 1.37 1.44 1.49 1.49 1.46 1.45 1.47 1.47 1.45 1.43 1.43 1.43 1.43
1.50 1.47 1.43 1.39 1.38 1.27 1.18 1.22 1.30 1.35 1.36 1.40 1.47 1.51 1.51 1.55 1.56 1.53 1.53 1.47 1.41 1.49 1.52 1.56 1.56 1.61 1.61 1.66 1.67 1.70 1.77 1.80 1.80 1.82 1.85 1.87 1.84 1.78 1.77 1.73 1.70 1.68 1.57 1.49 1.49 1.51 1.57 1.57 1.56 1.52 1.46 1.26 1.27 1.24 1.36 1.33 1.23 1.11 0.89 0.97 1.01 1.05 0.91 0.97 1.10 1.25 1.37 1.35 1.34 1.31 1.34 1.33 1.38 1.44 1.47 1.42 1.43 1.46 1.46 1.48 1.45 1.44 1.42 1.41 1.41
1.46 1.43 1.40 1.38 1.37 1.29 1.17 1.17 1.23 1.30 1.35 1.38 1.44 1.50 1.50 1.49 1.52 1.53 1.54 1.47 1.50 1.46 1.43 1.46 1.51 1.57 1.62 1.63 1.63 1.72 1.75 1.76 1.75 1.76 1.80 1.82 1.83 1.77 1.69 1.66 1.67 1.68 1.64 1.57 1.53 1.52 1.54 1.57 1.57 1.51 1.44 1.33 1.22 1.23 1.29 1.34 1.29 1.31 1.15 1.05 0.98 0.97 0.96 1.02 1.09 1.10 1.27 1.22 1.24 1.28 1.29 1.31 1.34 1.37 1.37 1.37 1.43 1.45 1.44 1.43 1.43 1.43 1.40 1.39 1.40
1.44 1.44 1.44 1.43 1.40 1.35 1.23 1.15 1.20 1.27 1.31 1.36 1.42 1.46 1.43 1.38 1.36 1.33 1.25 1.27 1.25 1.25 1.25 1.30 1.40 1.48 1.52 1.62 1.69 1.72 1.71 1.70 1.70 1.70 1.74 1.75 1.71 1.70 1.68 1.64 1.62 1.63 1.66 1.63 1.61 1.58 1.53 1.52 1.54 1.52 1.45 1.46 1.35 1.25 1.22 1.36 1.37 1.35 1.38 1.34 1.25 1.05 1.02 1.10 1.06 0.86 1.15 1.24 1.21 1.24 1.24 1.28 1.32 1.32 1.33 1.33 1.34 1.36 1.41 1.37 1.38 1.37 1.37 1.38 1.41
1.44 1.48 1.47 1.45 1.44 1.41 1.31 1.15 1.14 1.21 1.30 1.36 1.40 1.41 1.39 1.38 1.33 1.27 1.22 1.18 1.16 1.21 1.31 1.40 1.46 1.54 1.60 1.59 1.63 1.70 1.69 1.65 1.65 1.67 1.70 1.73 1.70 1.70 1.70 1.68 1.67 1.66 1.68 1.66 1.62 1.60 1.58 1.55 1.57 1.50 1.45 1.46 1.40 1.25 1.25 1.28 1.34 1.38 1.43 1.44 1.39 1.32 1.24 1.11 0.95 0.95 0.83 1.00 1.13 1.15 1.18 1.26 1.27 1.26 1.25 1.25 1.27 1.28 1.30 1.34 1.33 1.33 1.34 1.38 1.39
1.47 1.48 1.45 1.46 1.43 1.40 1.36 1.20 1.12 1.17 1.28 1.35 1.37 1.36 1.32 1.33 1.30 1.28 1.24 1.19 1.17 1.19 1.28 1.37 1.49 1.55 1.55 1.56 1.61 1.63 1.63 1.65 1.63 1.64 1.66 1.69 1.70 1.70 1.71 1.70 1.66 1.64 1.65 1.64 1.63 1.65 1.66 1.66 1.63 1.59 1.54 1.48 1.42 1.32 1.28 1.31 1.21 1.24 1.39 1.34 1.31 1.33 1.29 1.21 1.18 1.06 0.95 0.85 0.90 1.11 1.19 1.21 1.23 1.22 1.21 1.18 1.20 1.20 1.22 1.26 1.28 1.30 1.33 1.35 1.37
1.48 1.45 1.43 1.43 1.45 1.44 1.40 1.31 1.14 1.13 1.24 1.32 1.32 1.32 1.32 1.31 1.28 1.25 1.20 1.20 1.22 1.24 1.33 1.40 1.45 1.52 1.49 1.53 1.55 1.58 1.57 1.60 1.62 1.61 1.64 1.68 1.70 1.67 1.68 1.66 1.63 1.61 1.63 1.65 1.68 1.69 1.65 1.62 1.58 1.56 1.53 1.50 1.45 1.41 1.34 1.27 1.27 1.23 1.30 1.27 1.29 1.25 1.21 1.19 1.16 1.14 0.99 0.89 0.85 0.94 0.99 1.16 1.19 1.16 1.16 1.20 1.20 1.21 1.22 1.24 1.27 1.30 1.32 1.34 1.37
1.49 1.49 1.48 1.48 1.48 1.46 1.41 1.34 1.20 1.11 1.17 1.27 1.30 1.28 1.29 1.30 1.26 1.21 1.15 1.14 1.18 1.23 1.30 1.32 1.39 1.48 1.44 1.46 1.48 1.51 1.52 1.51 1.54 1.57 1.59 1.64 1.66 1.66 1.65 1.63 1.63 1.64 1.65 1.65 1.69 1.69 1.68 1.67 1.63 1.59 1.58 1.52 1.50 1.41 1.33 1.32 1.32 1.35 1.38 1.31 1.20 1.17 1.12 1.11 1.11 1.08 1.07 1.08 0.91 0.93 0.99 0.98 0.96 1.04 1.16 1.15 1.17 1.20 1.23 1.25 1.27 1.30 1.33 1.35 1.39
1.53 1.49 1.46 1.45 1.46 1.46 1.41 1.33 1.27 1.17 1.13 1.20 1.25 1.23 1.24 1.26 1.22 1.20 1.15 1.10 1.12 1.15 1.19 1.25 1.34 1.41 1.40 1.40 1.41 1.43 1.47 1.45 1.47 1.49 1.52 1.56 1.57 1.61 1.60 1.61 1.65 1.68 1.66 1.65 1.66 1.67 1.70 1.72 1.71 1.69 1.64 1.56 1.52 1.47 1.41 1.38 1.37 1.36 1.38 1.33 1.22 1.13 1.08 1.04 1.03 1.06 1.05 1.01 0.96 0.93 0.96 1.02 1.00 0.97 1.07 1.17 1.18 1.19 1.22 1.25 1.26 1.29 1.32 1.35 1.38
Wind_Speed
14 15 15 16 16 16 16 17 17 17 17 17 17 17 16 16 16 15 14 13 13 12 11 11 10 10 9 9 9 8 8 8 8 8 8 8 8 8 8 8 8 8 8 8 8 8 8 7 7 7 7 7 6 6 7 7 7 7 7 7 7 7 7 8 8 9 9 9 9 10 10 10 11 11 12 12 12 12 12 12 12 12 12 12 13
15 15 15 16 16 16 16 16 16 16 17 17 17 16 16 15 15 14 13 13 12 11 11 10 10 10 9 9 9 9 9 8 8 8 8 8 8 9 9 9 9 9 9 9 9 9 8 8 8 8 8 7 7 7 7 7 7 7 7 8 8 8 8 8 9 9 9 9 10 10 10 11 11 11 11 12 12 12 12 12 12 12 12 12 13
15 16 16 16 16 16 16 16 16 16 16 16 16 16 15 14 14 13 13 12 11 11 10 10 10 10 9 9 9 9 9 8 8 8 8 9 9 9 9 10 9 9 9 10 10 9 9 9 9 8 8 8 8 8 8 8 8 8 8 8 8 8 9 9 9 9 10 10 10 11 11 11 11 11 12 12 12 12 12 12 12 12 12 12 12
15 16 16 16 16 16 16 16 16 16 16 16 15 15 14 14 14 13 12 11 11 10 10 10 10 9 9 9 9 9 8 8 8 8 8 9 9 9 10 10 10 10 10 10 10 9 9 9 9 9 8 8 8 8 8 8 8 8 8 9 9 9 9 9 9 10 10 10 11 11 11 12 12 12 12 12 12 12 12 12 12 12 12 12 12
16 16 16 16 15 15 16 16 16 16 15 15 15 14 14 13 13 12 11 10 10 10 10 10 9 9 9 9 8 8 8 8 8 8 9 9 9 10 10 10 10 10 10 10 10 10 9 9 9 9 8 8 8 8 8 8 8 8 9 9 9 9 10 10 10 10 11 11 11 12 12 12 11 11 12 11 11 12 12 12 12 12 12 12 12
16 16 16 16 15 15 15 15 15 15 15 15 14 14 13 13 12 11 10 10 10 9 9 9 9 9 8 8 8 8 8 8 8 8 9 9 9 10 10 10 10 10 10 10 10 10 10 10 9 9 9 9 8 8 8 8 8 9 9 9 10 10 10 10 10 11 12 12 12 13 12 12 11 11 11 11 11 12 12 12 12 12 12 12 12
16 16 16 16 15 15 15 15 15 15 15 14 14 13 13 12 11 11 10 10 9 9 9 9 9 8 8 8 8 8 8 8 8 8 9 9 9 9 10 10 10 10 10 10 10 10 10 10 10 9 9 9 9 9 9 9 9 10 10 10 10 11 11 11 11 12 13 13 13 13 12 12 11 11 11 11 12 12 12 12 12 12 12 12 12
16 16 15 16 15 15 15 14 15 15 14 14 13 13 12 11 11 10 10 9 9 9 9 9 8 8 8 8 8 8 8 8 8 8 9 9 9 9 9 10 10 10 10 10 10 10 10 10 10 10 10 10 10 10 10 10 10 11 11 11 11 12 12 12 12 13 13 13 13 13 12 12 11 11 12 12 12 12 12 12 12 12 12 12 11
16 15 15 15 15 15 14 14 15 14 14 13 12 12 12 11 10 10 10 9 9 9 9 9 8 8 8 8 8 8 8 8 8 8 9 9 9 9 9 10 10 10 10 10 10 11 11 11 11 11 11 11 11 11 11 11 11 11 12 12 13 13 13 13 14 14 14 13 13 13 13 12 12 12 12 12 13 13 12 12 12 12 11 11 11
16 16 15 15 15 15 15 15 14 14 13 12 12 11 11 10 10 10 10 9 9 9 9 9 8 8 8 8 8 8 8 8 9 9 9 9 9 10 10 10 10 10 10 10 11 11 11 11 12 12 12 12 12 12 12 12 12 12 13 13 14 14 14 14 14 14 14 13 13 13 13 13 12 12 12 12 12 12 12 12 11 11 11 11 11
16 16 15 15 15 15 15 15 14 14 13 12 12 11 10 10 10 10 9 10 10 10 9 9 9 8 8 8 9 9 9 9 9 9 10 10 10 10 10 10 11 10 11 11 11 11 11 12 12 12 12 12 12 12 13 13 13 14 14 14 15 15 15 15 15 15 14 14 13 13 13 12 12 12 12 12 12 12 11 11 11 11 11 11 11
16 16 16 15 16 15 15 14 14 13 12 12 11 10 10 10 10 10 10 10 10 9 9 9 9 9 8 9 9 9 9 9 10 10 10 10 10 10 11 11 11 11 11 11 11 11 12 12 12 12 12 13 13 13 14 14 14 14 15 15 15 16 16 16 15 15 14 14 13 13 12 12 12 11 11 11 12 12 11 11 11 11 11 11 11
16 16 16 15 15 15 15 14 13 13 12 11 10 10 10 10 10 10 10 10 10 9 9 9 9 9 9 9 9 9 9 10 10 10 10 10 10 11 11 11 11 11 11 11 11 12 12 12 13 13 13 13 14 14 14 14 15 15 15 15 15 15 15 15 15 14 14 14 14 13 13 12 12 11 11 12 12 12 12 12 12 12 11 11 11
16 16 15 15 15 15 14 14 13 13 12 11 10 10 10 11 11 10 10 10 10 9 9 9 9 9 9 9 9 10 10 10 10 10 10 11 11 11 11 11 11 11 11 11 12 12 12 13 13 13 14 14 14 14 14 15 15 15 15 15 15 15 15 14 14 14 14 14 14 13 12 12 12 12 12 12 12 12 12 12 12 12 12 12 12
16 15 15 15 15 14 14 13 13 12 11 11 10 11 11 11 11 10 10 10 10 9 9 10 9 9 10 10 10 10 10 10 10 10 10 11 11 11 11 11 11 11 12 12 12 12 12 12 13 13 14 14 14 14 14 15 15 15 15 15 15 15 14 14 14 13 13 13 13 12 12 11 11 11 12 12 12 12 12 12 12 12 12 12 12
15 15 15 15 14 14 13 13 13 12 11 11 11 11 11 11 10 10 10 10 10 10 10 10 10 10 10 10 10 10 10 11 11 11 11 11 11 11 11 11 12 12 12 12 12 12 12 12 12 13 13 14 14 14 14 15 15 15 15 15 15 14 14 14 13 13 12 12 12 12 11 11 11 11 11 12 12 12 12 12 12 12 12 12 12
15 15 14 14 14 14 13 13 12 12 11 11 11 11 11 10 10 10 10 10 10 10 10 10 10 10 10 11 11 11 11 11 11 11 11 11 11 12 12 12 12 12 12 12 12 12 12 12 12 13 13 13 13 14 14 14 14 14 15 15 14 14 14 13 12 12 12 11 11 11 11 11 11 11 11 12 12 12 12 12 12 12 12 12 12
14 14 14 14 14 14 13 13 12 12 11 11 12 11 10 10 10 10 10 10 10 10 10 10 10 11 11 11 11 11 12 12 12 12 12 12 12 12 12 12 12 12 12 12 12 11 12 12 12 12 13 13 13 14 14 14 14 14 14 14 14 14 13 13 12 11 11 11 11 11 11 11 11 11 12 12 12 12 12 12 12 12 12 12 12
14 14 14 14 14 14 13 13 12 12 11 11 11 11 10 10 10 10 10 10 10 10 10 11 11 11 11 11 11 12 12 12 12 13 12 12 12 12 12 12 12 12 12 12 12 12 12 12 12 12 12 13 13 13 13 14 14 14 14 14 13 13 13 12 12 12 11 11 11 11 11 11 11 11 11 11 12 12 12 12 12 12 12 12 12
13 14 14 14 14 14 13 13 13 12 11 11 11 11 10 10 10 10 10 10 10 11 11 11 11 11 11 11 12 12 12 12 13 13 13 13 13 13 12 12 12 12 12 12 12 12 12 12 12 12 12 13 13 13 13 13 13 13 13 13 13 13 13 12 12 12 12 12 11 11 11 11 11 11 11 11 12 12 12 12 12 12 11 11 11
13 14 13 13 14 14 13 13 13 12 11 11 11 10 10 10 10 10 10 11 11 11 11 11 11 11 11 11 12 12 12 12 13 13 13 13 13 13 13 12 12 12 12 11 12 12 12 12 12 12 12 12 13 12 12 13 13 12 12 12 12 12 12 12 12 12 12 12 12 12 12 11 11 11 11 12 12 12 11 11 11 11 11 11 11
13 14 13 13 13 14 14 13 12 12 11 11 11 10 10 10 10 11 11 11 11 11 11 11 11 11 11 11 11 11 12 12 12 13 13 13 13 13 13 12 12 12 12 11 11 12 12 12 12 12 12 12 12 12 12 12 12 12 12 12 12 12 12 12 12 12 12 12 12 12 12 12 11 11 11 11 11 11 11 11 11 11 11 10 10
14 13 13 13 13 14 14 13 12 12 12 11 11 10 10 10 11 11 11 11 12 12 11 11 11 11 11 11 11 11 12 12 12 12 12 13 13 13 13 13 12 12 12 12 12 12 12 12 12 12 12 12 12 12 12 12 12 12 12 12 12 12 12 12 12 12 12 12 11 11 11 11 11 11 11 11 11 11 11 10 10 10 10 10 10
14 13 13 13 13 14 14 13 13 12 12 11 11 11 11 11 11 11 11 12 12 12 11 12 12 12 12 12 11 11 11 11 12 12 12 12 13 13 13 13 13 13 13 12 12 12 12 12 12 12 12 12 12 12 12 12 12 12 12 12 12 12 12 12 12 12 12 11 11 11 11 11 10 10 10 10 10 10 10 10 10 10 9 9 10
14 13 13 13 14 14 14 14 13 13 12 12 11 11 11 12 12 12 12 12 12 12 12 12 12 12 12 11 11 11 11 11 11 11 12 12 12 13 13 13 13 13 13 13 13 13 12 12 12 11 11 11 11 11 12 12 12 12 12 12 12 12 12 12 12 12 12 12 12 11 11 11 11 10 10 10 10 10 10 9 9 9 9 9 9
13 13 13 13 14 14 14 14 13 13 12 12 12 11 12 12 12 12 12 12 12 12 12 12 12 12 11 11 11 11 11 11 11 11 11 12 12 12 13 13 13 13 13 13 13 13 12 12 12 11 11 11 11 11 11 11 11 12 12 12 13 13 12 12 12 12 12 12 11 11 11 11 11 10 10 10 10 9 9 9 9 9 9 9 9
13 13 13 13 14 14 14 14 13 13 12 12 12 12 12 12 12 12 12 12 12 12 11 11 11 11 11 10 10 10 10 10 11 11 11 12 12 12 12 13 13 13 13 12 12 12 12 12 12 11 11 11 10 10 11 11 11 12 12 12 12 12 12 12 12 12 11 11 11 11 10 10 10 10 10 10 9 9 9 9 8 8 8 8 8
13 14 14 13 14 14 14 14 14 13 13 13 12 12 12 12 12 12 12 12 12 12 11 11 11 11 10 10 10 10 10 10 10 10 10 11 11 11 12 12 12 12 12 12 12 12 12 11 11 11 11 10 10 10 10 11 11 11 11 11 11 11 11 11 11 11 11 11 10 10 10 10 10 10 9 9 9 8 8 8 8 8 8 8 8
14 14 14 14 14 14 14 14 14 13 13 13 12 12 12 12 12 12 12 12 12 11 11 11 11 10 10 9 9 10 10 10 10 10 10 10 11 11 11 11 11 11 11 11 11 11 11 11 11 10 10 10 10 10 10 10 10 10 10 10 10 11 11 10 10 10 10 10 10 10 10 10 10 9 9 9 8 8 8 7 7 7 7 7 7
14 14 14 14 14 14 14 14 14 14 14 13 13 13 13 12 12 13 12 12 12 11 11 11 10 10 10 9 9 9 9 10 10 10 10 10 10 10 10 10 10 10 10 10 10 9 10 10 10 10 10 10 9 9 9 9 9 10 10 10 10 10 10 10 10 10 10 10 9 9 9 9 9 9 9 8 8 7 7 7 7 7 7 7 7
14 14 14 14 14 14 14 14 14 14 14 14 13 13 13 13 13 13 13 12 12 12 11 11 10 10 9 9 9 9 9 9 9 9 9 9 9 9 9 9 9 9 9 9 9 9 9 9 9 9 9 9 9 9 9 9 9 9 9 9 9 9 9 9 9 9 9 9 9 9 9 9 9 8 8 8 7 7 7 7 6 6 7 7 7
14 15 14 14 14 15 15 14 14 15 15 14 14 13 13 13 13 13 13 12 12 12 11 11 10 10 9 9 9 8 8 8 8 8 8 8 8 8 8 8 8 8 8 8 8 8 8 8 8 8 8 8 8 8 8 8 8 9 9 8 9 9 9 9 9 9 9 9 8 8 8 8 8 8 7 7 7 6 6 6 6 6 6 7 7
15 15 14 15 14 15 15 14 15 15 15 14 14 14 13 13 13 13 13 13 12 12 11 10 10 9 9 9 8 8 8 8 8 8 8 8 8 8 8 8 8 8 8 8 8 8 8 8 8 8 8 8 8 8 7 7 7 8 8 8 8 8 9 9 8 8 8 8 8 7 7 7 7 7 7 6 6 6 6 6 6 6 6 6 7
15 15 15 15 15 15 15 14 15 15 15 15 15 14 14 13 13 13 13 13 12 12 11 10 10 9 9 9 8 8 8 8 7 7 7 8 8 8 8 8 8 8 7 7 8 8 8 8 8 8 8 8 8 8 7 7 7 8 8 8 8 8 8 8 8 8 7 7 7 7 6 6 6 6 6 5 5 5 5 6 6 6 6 6 6
15 15 15 15 15 15 15 15 15 15 15 15 15 15 14 14 13 13 13 13 12 12 11 11 10 9 9 9 8 8 8 7 7 7 7 8 8 8 8 8 8 8 7 7 7 7 8 8 8 8 8 7 7 7 7 7 7 7 7 8 7 7 7 7 7 7 7 7 7 6 5 5 5 5 5 5 5 5 5 5 6 6 6 6 6
16 16 16 15 15 15 15 15 15 15 15 15 15 15 15 14 14 14 13 13 12 12 11 11 10 9 9 8 8 8 7 7 7 7 7 8 8 8 8 8 8 7 7 7 7 7 7 7 7 7 7 7 7 7 7 6 7 7 7 7 6 6 6 6 6 6 6 6 6 6 5 4 4 4 4 5 5 5 5 6 6 6 6 6 7
16 16 16 16 16 16 16 16 16 16 15 16 15 15 15 14 14 14 14 13 13 12 12 11 10 9 9 8 8 8 8 7 7 8 8 7 7 7 7 7 7 7 7 7 7 7 7 7 7 7 7 7 7 6 6 6 7 7 6 6 6 6 5 5 6 6 5 5 5 5 5 4 4 4 4 5 5 5 6 6 6 6 6 7 7
16 17 17 16 16 16 16 16 16 16 16 16 16 15 15 14 14 14 14 13 13 12 12 11 10 10 9 8 8 8 8 7 8 8 8 8 7 7 7 7 7 7 7 7 7 7 7 7 7 7 7 7 6 6 6 6 6 6 6 5 5 5 5 5 5 5 5 5 5 5 5 5 5 5 5 5 5 6 6 6 6 7 7 7 8
17 17 17 16 16 16 16 16 16 16 16 16 16 15 15 15 14 14 14 13 13 13 12 11 11 10 9 9 9 8 8 8 8 8 8 8 8 7 7 7 7 7 7 7 7 7 7 7 7 6 6 6 6 6 6 5 6 6 5 5 5 5 4 4 5 4 4 4 4 4 4 5 5 6 6 6 6 6 6 7 7 7 8 8 8
18 18 18 17 17 17 17 16 16 17 17 16 16 16 15 15 15 15 14 14 13 13 12 12 11 10 10 9 9 8 8 8 8 8 8 8 8 7 7 7 7 7 7 7 6 6 7 7 7 6 5 5 5 6 6 5 5 5 5 5 5 5 4 4 4 4 4 4 4 4 5 5 5 6 6 7 7 7 7 7 8 8 9 9 8
18 19 19 18 17 17 17 17 17 17 17 17 17 16 16 15 15 15 15 14 14 13 12 12 11 11 10 10 9 9 9 8 8 9 8 8 8 7 7 7 7 7 6 6 6 6 7 7 7 6 5 5 5 5 5 5 5 5 5 4 5 5 4 4 4 3 4 4 4 4 5 5 6 6 6 7 7 7 8 8 9 9 9 9 9
20 20 20 19 18 18 18 18 18 18 18 18 17 17 16 16 15 16 16 15 14 13 12 12 12 11 11 10 10 10 9 9 9 9 8 8 8 7 7 7 7 7 7 6 6 6 6 7 6 6 5 5 5 5 5 5 5 5 5 4 4 4 4 4 4 3 3 4 4 4 5 5 6 6 6 7 7 8 9 9 9 10 10 9 9
20 20 20 20 19 18 18 18 18 18 18 18 18 17 17 16 16 16 16 15 14 13 13 13 12 12 11 11 11 11 10 9 9 9 9 8 8 8 8 8 7 7 7 6 6 6 6 6 6 6 5 5 5 5 5 5 5 5 5 4 4 4 3 3 3 3 3 4 4 5 5 5 5 6 6 7 8 8 9 10 10 9 9 9 9
21 21 21 20 19 18 18 19 19 19 19 18 18 17 17 17 16 16 16 15 14 14 13 13 13 12 12 11 11 11 10 10 10 9 9 9 8 8 8 8 7 7 7 6 6 6 6 6 6 6 6 5 5 5 5 5 5 5 5 4 4 4 3 3 3 4 4 4 4 5 5 5 5 6 6 7 8 8 9 9 9 9 8 8 8
22 22 22 21 20 19 19 19 19 19 19 19 18 17 17 17 16 16 16 16 15 15 14 14 13 13 12 12 11 11 11 10 10 10 10 9 9 8 8 8 7 7 6 6 6 6 6 6 6 6 6 5 5 5 5 4 4 5 5 5 5 4 3 3 4 4 5 5 5 5 5 5 5 5 6 7 7 8 8 8 8 8 8 7 7
22 22 22 21 20 19 19 19 20 20 19 19 18 18 18 18 18 17 17 17 15 15 15 15 14 14 13 12 12 11 11 11 10 10 10 9 9 9 8 8 7 7 6 6 6 6 6 6 6 6 6 5 5 5 5 4 4 5 5 4 4 4 4 4 5 5 5 5 5 5 5 5 5 5 6 6 7 7 7 7 7 7 7 7 7
22 22 22 22 22 20 20 20 20 20 20 20 19 19 19 19 19 19 18 17 16 16 16 15 15 15 14 13 12 12 12 11 11 11 10 10 10 9 8 8 7 7 6 6 6 6 6 6 6 6 5 5 5 5 5 4 4 4 4 4 4 4 5 5 5 5 5 5 5 5 5 5 6 6 6 6 6 7 7 7 6 6 6 6 6
22 22 22 22 22 22 21 20 20 20 20 20 20 19 20 20 20 19 18 18 17 16 16 16 15 15 14 13 12 12 12 12 11 11 11 10 10 9 8 8 7 7 6 6 6 6 6 5 5 5 5 5 5 5 5 4 4 4 4 4 4 4 5 5 5 6 6 6 5 6 6 6 6 6 6 6 6 7 7 7 6 6 6 6 6
22 22 22 22 23 23 22 21 21 21 21 21 21 20 20 20 20 19 19 18 18 17 16 16 16 15 15 14 13 13 12 12 12 12 11 10 10 9 9 8 7 7 6 6 6 6 6 5 5 5 5 5 5 5 5 4 4 4 4 4 5 5 5 5 6 6 7 7 6 6 7 7 7 7 7 7 7 7 7 6 6 6 6 6 6
23 23 23 23 23 23 23 22 21 21 21 21 21 21 21 21 20 20 19 19 19 18 17 17 16 16 15 15 14 13 13 12 12 12 11 11 10 9 9 8 7 7 7 6 6 6 6 6 5 5 5 5 5 5 5 5 4 4 4 5 5 5 5 6 6 6 6 7 7 7 7 7 8 8 7 7 7 7 7 6 6 5 5 5 5
23 23 23 23 23 24 24 24 22 22 22 22 22 22 21 21 21 21 20 20 19 19 18 18 17 17 16 16 15 14 13 13 12 12 11 11 10 10 9 8 8 7 7 6 6 6 6 6 5 5 5 5 5 5 5 5 5 5 5 5 5 5 5 5 6 6 6 7 7 7 7 7 8 7 7 7 7 7 6 6 5 5 5 4 4
Wind_Direction
131 131 130 128 127 126 123 123 123 123 122 123 123 123 123 123 122 121 119 117 115 113 111 110 108 106 104 103 102 103 104 106 107 109 109 110 112 113 114 113 112 113 113 114 115 117 116 116 117 116 114 115 117 116 117 118 117 117 117 117 117 116 114 112 111 111 110 111 108 105 104 103 101 101 102 100 99 97 96 96 97 96 95 95 94
133 132 131 131 129 127 125 125 125 125 124 124 125 124 124 122 122 121 118 116 114 112 110 109 107 105 103 101 100 99 100 101 102 104 106 109 111 112 113 112 111 110 110 110 111 112 112 111 109 109 109 110 113 113 114 115 115 115 116 116 116 115 114 112 112 112 111 112 110 107 106 105 104 103 103 101 99 97 97 97 97 96 96 96 94
132 132 133 132 130 129 128 127 127 126 126 126 126 126 124 123 122 121 118 115 113 111 109 108 107 105 101 99 97 96 96 97 100 102 104 108 110 112 113 112 111 109 108 108 107 107 107 106 105 105 106 108 110 111 111 112 112 113 114 114 115 115 115 114 114 113 112 112 111 109 107 106 104 105 104 101 98 97 97 97 98 98 98 97 94
134 134 135 134 131 130 129 128 127 127 127 127 127 126 125 124 122 120 117 115 113 110 109 108 107 104 99 97 95 94 94 97 100 102 105 108 110 112 113 113 111 109 108 105 103 102 102 102 102 102 104 106 107 109 110 111 111 112 113 114 115 116 116 116 115 114 113 113 113 110 107 105 105 105 103 101 98 98 98 98 100 99 99 97 94
137 137 137 136 133 132 130 129 128 128 128 128 127 126 125 124 122 119 117 115 112 109 108 108 107 103 98 95 93 92 94 98 101 102 106 109 112 113 114 113 111 110 107 105 102 100 98 98 99 100 101 102 104 107 109 111 111 113 115 116 117 118 118 116 116 115 114 114 113 110 107 106 105 105 103 101 99 99 99 100 100 99 98 96 94
140 140 139 137 135 133 132 130 130 130 130 129 127 127 126 124 121 119 117 115 112 110 109 109 107 102 97 94 92 92 95 98 101 103 107 110 113 115 114 113 111 109 106 104 101 98 97 96 96 97 97 99 103 107 110 111 112 115 116 117 117 118 117 116 117 116 115 113 112 110 107 106 105 105 103 102 100 100 100 100 100 99 97 94 91
140 141 140 139 137 135 133 132 132 132 131 130 128 128 126 124 121 120 117 115 112 110 110 109 106 101 96 93 92 93 96 100 103 106 109 111 114 116 115 114 113 110 107 104 100 98 97 95 95 94 95 99 104 107 110 111 112 114 115 116 116 117 116 115 115 115 114 113 111 109 107 106 105 104 103 101 100 100 100 99 99 97 95 92 90
141 142 141 140 139 137 136 135 135 134 132 131 129 128 126 124 122 120 118 115 113 112 111 110 106 101 96 93 92 94 97 101 105 109 112 114 116 117 117 116 115 112 109 105 101 98 96 95 93 93 95 98 103 107 109 109 110 111 113 115 116 117 116 115 115 114 114 112 110 108 106 105 105 104 102 101 100 99 98 98 97 95 93 91 90
143 143 142 142 142 141 139 137 137 136 134 132 130 128 126 124 123 121 119 116 115 114 112 110 106 101 97 94 93 95 97 100 105 110 114 117 117 118 119 118 116 113 110 105 102 99 95 94 93 94 94 96 100 103 106 108 109 110 111 114 115 116 115 114 114 114 113 112 109 108 106 104 103 103 102 100 99 98 98 98 96 94 92 91 89
145 144 144 143 143 143 142 140 138 137 135 133 131 128 127 125 123 121 119 117 116 115 112 109 106 102 98 95 95 96 97 100 105 111 115 118 118 118 119 118 117 114 111 107 103 99 96 94 94 94 94 95 98 100 104 106 107 109 111 113 114 114 114 114 114 114 113 111 108 107 106 105 103 102 100 99 98 98 98 97 95 94 92 90 88
145 145 144 144 144 144 143 141 140 139 136 134 132 131 129 126 124 122 120 118 118 115 112 109 107 104 100 96 96 97 98 100 105 110 114 117 118 117 117 117 116 114 112 108 104 100 98 96 95 94 94 96 98 99 102 104 105 108 111 112 112 113 113 113 113 113 112 109 108 107 106 104 102 101 100 99 98 99 98 96 95 94 92 89 87
146 146 145 145 146 145 144 143 142 140 137 136 134 133 130 127 125 123 121 119 117 115 112 110 108 105 100 97 97 97 98 101 104 109 113 115 116 116 116 116 115 114 112 109 105 102 100 98 95 94 94 97 98 99 101 104 106 107 110 111 111 112 112 113 113 111 109 108 107 107 106 103 101 101 100 98 97 97 97 96 95 93 90 88 86
146 146 146 146 147 146 145 144 143 141 139 137 135 133 130 128 126 123 121 119 117 114 112 111 108 104 99 97 98 99 100 103 105 108 112 114 115 115 115 116 115 115 113 110 107 104 102 99 96 94 94 97 98 99 101 103 105 106 109 110 110 111 112 112 112 110 107 106 106 106 104 102 101 100 99 97 97 96 96 95 93 91 89 87 86
147 148 147 148 148 148 146 146 145 142 140 138 135 133 130 128 125 123 121 119 116 113 112 112 109 104 99 97 99 101 102 103 105 107 110 112 114 114 114 115 115 115 114 112 109 106 104 101 97 95 95 97 98 98 100 102 105 106 107 108 108 109 110 110 110 108 106 106 106 105 103 101 100 99 98 96 96 96 95 94 92 90 87 86 84
149 149 149 149 150 149 148 148 146 144 141 137 135 132 130 128 125 124 121 118 116 114 113 112 111 106 101 99 100 102 103 104 105 106 109 111 113 114 115 116 116 115 115 113 110 108 105 103 99 97 97 98 98 99 99 101 103 105 106 106 105 107 108 109 108 107 106 106 105 103 101 99 98 97 96 96 95 95 95 93 91 89 87 85 84
151 151 150 151 152 151 150 149 148 145 142 138 136 133 131 129 126 124 120 119 117 116 115 113 112 107 103 100 99 101 102 103 105 106 108 110 112 115 116 116 116 116 116 113 110 108 106 104 102 100 99 98 99 99 99 100 102 104 105 104 104 105 107 108 107 108 107 106 105 102 100 99 98 97 97 96 95 95 94 92 90 88 87 86 85
152 153 152 153 153 153 152 150 149 146 143 140 137 134 132 129 126 123 121 120 119 118 115 114 112 108 104 100 99 100 100 102 104 106 107 109 112 115 116 116 117 117 115 112 109 107 107 106 104 101 99 99 99 100 100 101 102 102 103 103 103 105 106 107 107 108 108 107 105 102 100 99 98 98 98 96 95 94 93 92 90 89 88 87 87
153 155 154 154 154 154 153 151 149 147 144 142 139 135 133 130 127 125 123 122 120 118 116 115 114 110 106 102 100 99 100 101 102 104 106 108 111 114 115 117 117 117 115 112 109 106 107 108 105 102 101 99 99 100 100 101 101 101 101 102 103 104 105 106 107 108 109 108 106 103 101 100 99 99 98 97 95 95 94 93 92 91 90 89 88
154 156 156 154 155 155 154 151 150 149 146 143 140 136 133 132 130 128 126 124 122 120 119 117 115 112 108 105 102 100 100 100 101 102 103 105 109 112 115 117 118 117 115 113 109 107 107 108 106 104 103 101 100 100 100 100 99 99 100 101 102 102 102 103 104 106 108 108 106 104 103 101 100 99 99 98 96 95 95 94 93 92 91 90 88
156 158 157 156 156 156 154 152 151 150 148 144 140 138 136 134 132 130 128 126 123 121 120 119 117 114 110 107 105 103 101 100 99 100 101 103 105 109 113 116 117 116 115 113 111 109 108 107 106 105 103 102 101 100 98 98 98 99 100 100 100 101 101 101 102 104 105 106 106 105 104 103 101 99 99 98 97 96 95 95 94 93 91 89 87
157 159 158 157 157 157 155 153 153 152 149 146 142 140 138 137 135 133 130 127 124 122 121 120 119 117 114 111 108 105 103 101 100 100 100 101 103 106 110 113 114 114 114 114 112 111 110 108 107 106 105 103 102 100 98 99 99 100 100 100 101 101 101 101 101 102 103 105 105 106 105 104 103 100 100 99 98 97 96 95 94 92 90 88 86
159 160 160 159 158 157 156 155 154 154 151 148 145 142 140 139 137 135 131 128 125 124 123 122 121 119 117 114 111 108 106 103 102 102 102 102 103 104 107 111 112 113 114 114 114 114 113 111 110 108 107 105 102 101 100 100 100 99 100 100 101 101 102 102 102 102 103 104 104 104 104 104 103 102 101 100 100 99 97 96 93 91 89 87 85
160 160 161 161 160 159 158 157 156 155 154 151 148 144 142 142 139 136 133 129 126 125 124 122 120 119 117 115 113 110 108 106 104 104 104 104 103 104 106 108 109 111 112 113 114 116 115 113 112 111 109 107 104 102 101 100 100 99 100 100 100 100 100 102 103 103 103 102 102 102 102 102 102 102 102 102 102 100 98 96 93 91 89 86 83
162 162 162 162 162 161 161 160 159 158 156 153 150 146 145 144 141 138 134 131 129 127 124 121 119 118 117 115 113 111 110 107 106 106 106 106 105 105 106 107 108 109 110 110 111 114 115 114 113 112 110 109 106 103 102 100 100 100 100 101 100 99 100 101 102 103 102 101 101 100 101 101 102 102 102 101 100 99 97 95 93 90 87 84 82
163 162 163 164 163 164 163 162 161 160 158 156 152 148 147 146 144 141 137 134 132 129 126 123 121 119 118 116 115 113 112 109 108 108 108 108 107 107 107 108 108 108 108 107 108 110 112 112 113 114 113 111 108 105 103 101 101 100 100 100 99 99 99 100 101 102 102 101 100 100 100 100 100 99 99 99 98 97 95 94 91 89 86 83 80
165 164 164 165 165 165 165 164 163 161 160 158 155 151 150 149 147 144 140 137 135 132 129 126 124 122 120 118 117 115 114 112 111 111 110 111 110 110 110 110 109 108 108 107 107 108 109 111 112 114 114 112 110 107 106 103 102 102 101 101 99 99 98 99 101 102 102 101 100 99 98 97 97 97 97 97 97 96 94 93 90 88 85 82 79
167 166 166 166 166 167 167 166 165 163 162 160 157 155 153 152 150 147 143 140 138 136 132 130 127 125 123 120 119 117 116 114 113 113 112 113 113 113 113 112 111 110 109 108 107 107 108 110 111 113 113 112 111 108 107 106 104 103 103 103 101 99 98 99 101 102 102 101 99 99 98 97 98 98 98 98 97 96 95 93 91 88 84 81 78
169 168 167 167 168 169 169 169 167 166 164 163 161 158 157 155 153 150 146 143 141 139 137 134 131 129 127 124 123 120 118 117 115 115 114 114 114 114 115 113 113 112 111 109 108 108 107 108 108 109 110 110 111 109 109 108 106 105 106 106 103 101 99 99 101 101 101 100 99 98 97 97 97 98 99 98 97 96 94 91 89 86 83 79 76
171 170 169 169 169 170 171 172 171 169 167 166 164 161 160 158 156 153 149 147 144 142 139 137 134 133 130 128 126 123 120 119 118 117 116 115 116 116 116 115 114 114 114 112 111 109 108 108 108 108 108 108 108 109 109 108 106 107 108 106 104 102 100 100 100 101 100 100 99 98 98 96 96 96 97 96 95 93 91 89 86 84 80 77 75
174 172 171 171 171 172 172 174 173 172 170 169 167 164 163 161 159 157 153 150 147 144 141 138 137 135 133 132 129 126 123 121 120 120 119 117 117 117 117 118 118 117 116 116 114 112 111 109 109 109 109 109 108 108 108 108 107 109 109 106 104 102 101 100 99 100 100 99 99 98 98 96 95 94 94 93 91 89 88 87 85 82 78 76 75
176 175 174 173 173 174 174 175 175 173 172 171 169 167 166 165 162 160 157 153 150 147 144 142 141 138 136 135 133 130 127 124 124 123 122 121 120 120 120 121 122 122 120 119 118 116 116 114 113 112 111 112 110 108 109 108 108 109 109 108 107 105 103 101 99 99 100 99 98 96 95 95 93 92 91 90 88 87 86 86 84 80 78 76 75
178 178 176 176 176 176 176 176 177 176 174 173 172 170 169 168 165 163 160 157 154 151 148 147 145 142 141 141 139 135 132 129 128 127 126 125 125 125 125 125 126 126 125 123 121 121 120 119 119 116 115 114 111 110 113 113 111 110 111 111 111 109 107 104 100 100 99 99 99 96 94 93 92 89 87 86 84 84 84 84 82 80 79 77 75
180 181 179 179 178 178 178 177 178 178 176 175 174 173 172 170 168 166 164 161 159 156 154 153 151 148 148 147 145 141 139 136 133 132 131 128 128 128 129 130 130 129 128 127 125 124 123 122 122 118 117 115 112 112 113 116 116 114 113 113 113 112 109 107 103 101 99 99 99 97 94 93 91 88 86 83 81 81 81 81 80 80 80 77 75
182 183 182 181 180 179 179 178 179 180 178 177 176 175 174 173 171 169 168 166 163 161 160 159 157 154 153 154 152 148 145 143 140 138 136 133 131 130 131 132 132 132 130 130 128 128 126 125 123 119 117 115 113 113 110 115 118 116 115 114 113 112 110 108 104 103 101 99 99 99 97 93 90 87 84 82 81 81 80 80 81 81 80 77 75
184 185 184 183 182 181 181 180 180 181 180 178 178 177 176 175 174 172 172 171 168 166 166 165 163 160 159 159 159 156 152 149 147 144 141 138 135 133 134 135 135 134 133 133 133 132 129 127 125 122 120 117 114 114 112 115 121 120 118 116 113 111 110 109 106 104 103 102 102 101 98 93 90 86 82 82 82 81 79 82 84 83 81 79 78
186 186 187 185 184 184 184 182 182 183 182 181 180 179 178 177 176 176 176 175 172 171 171 169 168 166 164 163 162 161 159 155 153 151 147 143 139 138 139 139 138 136 135 136 136 134 132 130 129 128 126 123 119 116 112 114 124 126 123 120 117 113 110 109 110 108 104 104 104 101 97 91 87 86 85 84 83 80 80 84 85 84 83 82 81
189 188 188 187 186 187 186 185 184 184 184 183 182 181 180 179 179 179 179 178 176 174 174 173 171 170 169 167 165 164 163 161 158 156 152 148 145 144 144 142 140 139 138 138 137 135 134 134 133 132 132 130 123 118 112 111 123 130 128 126 122 116 111 110 114 112 105 102 101 98 92 84 81 85 89 87 84 83 85 87 85 85 86 86 84
192 190 190 190 189 189 188 187 187 186 186 185 184 184 183 182 182 182 181 180 179 177 176 174 173 173 173 170 167 165 163 161 159 159 155 151 148 147 147 146 143 142 141 141 140 138 137 138 137 136 136 135 130 125 119 115 122 129 130 130 127 120 114 113 114 110 104 100 98 94 86 80 79 85 89 87 86 88 89 89 87 88 89 88 86
194 192 192 192 192 191 190 189 189 188 188 188 187 186 185 185 185 183 183 182 181 180 178 177 176 176 177 173 170 166 163 161 159 158 156 152 150 149 149 148 146 145 144 144 144 142 141 141 140 139 139 140 138 134 130 125 123 126 127 128 128 123 116 115 112 104 102 102 100 94 87 84 85 89 90 90 92 94 95 92 91 91 90 89 88
196 195 194 194 194 194 192 191 191 190 189 189 189 187 187 187 187 185 185 185 183 182 181 180 180 181 181 177 173 169 165 163 160 158 157 154 152 152 150 150 149 146 145 147 148 149 149 147 144 142 140 139 139 138 135 132 128 125 123 122 125 123 117 114 110 102 102 103 100 94 90 92 95 95 92 94 97 98 98 96 95 95 92 91 89
197 196 196 195 195 195 194 192 191 191 191 190 190 189 188 188 187 187 187 186 184 184 183 183 183 184 184 180 176 174 169 166 162 160 158 155 154 154 151 149 149 148 147 149 152 153 153 151 148 144 141 138 139 139 138 136 132 129 125 121 122 123 119 117 113 109 106 103 98 93 94 98 101 101 98 98 99 99 99 100 100 98 95 93 90
198 198 197 197 197 197 195 194 193 193 192 192 191 190 190 189 187 187 187 187 186 185 185 184 184 185 185 183 180 177 173 170 166 162 161 158 156 154 152 150 149 148 148 149 152 153 153 151 149 147 143 141 143 142 139 138 139 138 130 120 116 118 118 119 120 120 113 105 102 100 102 103 102 105 104 100 100 101 102 102 102 101 98 95 90
199 199 198 198 198 198 197 195 194 195 194 193 193 192 191 190 188 187 187 188 188 187 186 185 184 185 185 184 181 178 176 173 170 167 164 161 159 156 154 153 149 148 147 147 148 151 153 152 151 148 145 142 140 139 135 134 140 139 127 118 114 111 109 114 121 126 119 112 113 112 111 110 107 108 107 103 102 105 105 104 103 102 100 95 89
200 200 199 198 198 198 197 196 196 197 196 195 195 193 192 191 189 188 188 189 189 188 187 185 185 185 183 181 179 177 177 175 173 171 168 164 161 158 156 154 152 149 147 146 148 151 154 156 154 152 148 141 137 139 137 133 139 139 127 119 114 109 109 111 115 123 123 120 122 121 118 115 112 111 109 106 107 108 108 106 104 102 99 95 89
201 201 199 199 199 199 197 196 197 198 197 196 196 194 192 191 190 188 187 188 189 189 187 185 186 184 181 180 178 177 178 177 176 173 170 166 162 160 158 155 154 153 150 149 150 150 153 157 158 156 152 145 140 141 141 136 138 140 132 123 112 110 116 112 108 115 121 124 126 125 124 121 118 114 111 111 111 112 111 109 105 101 97 94 88
202 202 201 199 200 200 198 197 198 199 198 196 196 195 193 191 189 188 188 188 188 189 188 185 185 185 182 181 180 179 178 177 176 173 170 167 164 163 161 158 156 155 154 152 151 150 153 156 157 158 157 151 143 141 143 138 135 137 135 130 121 116 119 114 110 113 117 122 126 128 128 124 120 118 116 115 114 113 114 113 108 102 96 92 87
202 203 202 201 200 200 199 198 199 200 199 197 197 196 194 193 192 191 191 191 190 191 190 187 186 185 184 183 183 181 179 178 177 175 172 169 167 167 166 164 160 159 158 155 153 151 152 154 155 158 160 154 147 146 148 142 135 135 134 135 130 120 118 117 116 115 114 117 123 128 128 123 120 120 120 120 117 114 114 116 112 104 97 92 85
202 203 203 202 201 200 200 200 200 200 200 198 198 198 197 195 194 194 194 194 194 193 191 189 188 187 186 185 185 183 180 179 179 178 176 173 171 171 170 168 165 163 161 157 156 154 153 155 156 157 159 157 154 154 152 146 139 136 135 137 131 122 121 121 121 121 118 116 118 123 123 121 120 121 121 121 120 117 114 114 111 105 97 91 84
203 203 204 204 203 201 200 201 201 201 201 200 199 200 199 198 196 195 195 195 196 194 192 190 189 190 189 187 187 185 183 182 182 182 181 179 177 175 173 172 169 167 164 159 159 159 156 156 155 154 155 156 157 157 155 150 145 137 137 140 134 126 124 124 124 123 121 119 121 123 121 117 116 117 120 119 118 117 115 113 109 103 96 89 81
204 204 205 204 203 203 201 201 202 202 202 202 201 201 201 199 198 196 195 195 196 194 193 191 190 191 191 189 189 189 187 185 185 185 185 184 182 180 178 177 175 172 168 165 163 162 159 155 152 150 150 151 154 157 155 150 146 141 142 145 143 137 131 129 128 127 126 125 126 128 125 121 119 117 116 115 115 115 114 112 107 101 94 85 74
205 205 205 204 204 204 203 202 203 203 203 204 203 202 202 201 200 198 196 197 197 195 194 193 191 192 192 191 191 191 190 189 188 188 189 189 187 186 183 181 181 179 175 172 167 164 162 157 151 151 152 150 151 154 153 150 147 147 147 149 151 146 141 139 135 132 134 134 131 130 128 127 128 124 117 114 114 114 112 109 104 97 88 76 64